User: anonymous   Login
Location: Newark
(52.4787°S, 179.0532°W)
Time: 12:10:55
(UTC+00:00)
Language:

Courier 1B - Orbit

View from above orbital plane
View from above orbital plane
View from above satellite
View from above satellite

Ground track
Ground track

The orbit data is extracted from the following two-line orbital elements,

1    58U 60013A   19317.83412616  .00000076  00000-0 -11137-4 0  9996
2    58  28.3260 113.5900 0164909  75.8261 286.0545 13.46319522909939
Epoch (UTC): 13 November 2019 20:01:08
Eccentricity: 0.0164909
inclination: 28.3260°
perigee height: 963 km
apogee height: 1209 km
right ascension of ascending node: 113.5900°
argument of perigee: 75.8261°
revolutions per day: 13.46319522
mean anomaly at epoch: 286.0545°
orbit number at epoch: 90993

The dashed part of the orbit path shows where the satellite is in the earth's shadow,  

DLR